,,,PA_Meas_PMT16A,,PR_Meas_QMR101_102,,RH_Meas_QMH101,,SR_Meas_QMS101,,TA_Meas_QMH101,,GenWind,,GenWind,
date,time,status,PA,status,PR,status,RH,status,SR,status,TA,status,DirAvg,status,SpdAvg,
2011-01-15, 00:00:04,VALID,998.458,VALID,0,VALID,90.5788,VALID,0,VALID,23.9354,VALID,79,VALID,0.531641,
2011-01-15, 00:01:04,VALID,998.433,VALID,0,VALID,90.4797,VALID,0,VALID,23.9567,VALID,79,VALID,0.485547,
2011-01-15, 00:02:04,VALID,998.436,VALID,0,VALID,90.4415,VALID,0,VALID,23.9549,VALID,79,VALID,0.348047,
2011-01-15, 00:03:04,VALID,998.402,VALID,0,VALID,90.4034,VALID,0,VALID,23.9354,VALID,79,VALID,0.229687,
2011-01-15, 00:04:04,VALID,998.388,VALID,0,VALID,90.4186,VALID,0,VALID,23.9354,VALID,79,VALID,0.221094,
2011-01-15, 00:05:04,VALID,998.384,VALID,0,VALID,90.5026,VALID,0,VALID,23.9159,VALID,79,VALID,0.367969,
2011-01-15, 00:06:04,VALID,998.378,VALID,0,VALID,90.5865,VALID,0,VALID,23.9567,VALID,79,VALID,0.434766,
2011-01-15, 00:07:04,VALID,998.37,VALID,0,VALID,90.6323,VALID,0,VALID,23.9549,VALID,79,VALID,0.486719,
2011-01-15, 00:08:04,VALID,998.364,VALID,0,VALID,90.6475,VALID,0,VALID,23.9549,VALID,79,VALID,0.494531,
2011-01-15, 00:09:04,VALID,998.337,VALID,0,VALID,90.6323,VALID,0,VALID,23.9744,VALID,79,VALID,0.539453,
2011-01-15, 00:10:04,VALID,998.329,VALID,0,VALID,90.617,VALID,0,VALID,24.0153,VALID,79,VALID,0.616016,
2011-01-15, 00:11:04,VALID,998.298,VALID,0,VALID,90.5712,VALID,0,VALID,23.9939,VALID,79,VALID,0.628516,
2011-01-15, 00:12:04,VALID,998.31,VALID,0,VALID,90.4949,VALID,0,VALID,24.0134,VALID,79,VALID,0.674609,
2011-01-15, 00:13:04,VALID,998.266,VALID,0,VALID,90.4568,VALID,0,VALID,24.0329,VALID,79,VALID,0.708984,
2011-01-15, 00:14:04,VALID,998.235,VALID,0,VALID,90.3576,VALID,0,VALID,24.0329,VALID,79,VALID,0.701563,
2011-01-15, 00:15:04,VALID,998.244,VALID,0,VALID,90.2889,VALID,0,VALID,24.0329,VALID,79,VALID,0.499219,
2011-01-15, 00:16:04,VALID,998.208,VALID,0,VALID,90.2584,VALID,0,VALID,24.0134,VALID,79,VALID,0.550781,
2011-01-15, 00:17:04,VALID,998.225,VALID,0,VALID,90.2508,VALID,0,VALID,24.0134,VALID,79,VALID,0.316797,
2011-01-15, 00:18:04,VALID,998.191,VALID,0,VALID,90.2355,VALID,0,VALID,23.9531,VALID,79,VALID,0,
2011-01-15, 00:19:04,VALID,998.19,VALID,0,VALID,90.266,VALID,0,VALID,23.9744,VALID,79,VALID,0,
2011-01-15, 00:20:04,VALID,998.161,VALID,0,VALID,90.3118,VALID,0,VALID,23.9549,VALID,79,VALID,0,
2011-01-15, 00:21:04,VALID,998.144,VALID,0,VALID,90.3347,VALID,0,VALID,23.9159,VALID,79,VALID,0,
2011-01-15, 00:22:04,VALID,998.124,VALID,0,VALID,90.3881,VALID,0,VALID,23.9159,VALID,79,VALID,0,
2011-01-15, 00:23:04,VALID,998.097,VALID,0,VALID,90.4568,VALID,0,VALID,23.8768,VALID,79,VALID,0.357422,
2011-01-15, 00:24:04,VALID,998.048,VALID,0,VALID,90.6399,VALID,0,VALID,23.8768,VALID,79,VALID,0.647266,
2011-01-15, 00:25:04,VALID,998.073,VALID,0,VALID,90.8535,VALID,0,VALID,23.8768,VALID,79,VALID,0.584766,
2011-01-15, 00:26:04,VALID,998,VALID,0,VALID,90.9909,VALID,0,VALID,23.8768,VALID,79,VALID,0.507031,
2011-01-15, 00:27:04,VALID,998.003,VALID,0,VALID,91.0366,VALID,0,VALID,23.8768,VALID,79,VALID,0.380469,
2011-01-15, 00:28:04,VALID,997.975,VALID,0,VALID,91.0671,VALID,0,VALID,23.8573,VALID,79,VALID,0.207031,
2011-01-15, 00:29:04,VALID,997.93,VALID,0,VALID,91.09,VALID,0,VALID,23.8378,VALID,79,VALID,0.142969,
2011-01-15, 00:30:04,VALID,997.913,VALID,0,VALID,91.0977,VALID,0,VALID,23.8183,VALID,79,VALID,0,
2011-01-15, 00:31:04,VALID,997.859,VALID,0,VALID,91.1129,VALID,0,VALID,23.8183,VALID,79,VALID,0.0972656,
2011-01-15, 00:32:04,VALID,997.832,VALID,0,VALID,91.1282,VALID,0,VALID,23.8006,VALID,79,VALID,0,
2011-01-15, 00:33:04,VALID,997.798,VALID,0,VALID,91.1511,VALID,0,VALID,23.7597,VALID,79,VALID,0,
2011-01-15, 00:34:04,VALID,997.747,VALID,0,VALID,91.1816,VALID,0,VALID,23.7597,VALID,79,VALID,0,
2011-01-15, 00:35:04,VALID,997.714,VALID,0,VALID,91.2045,VALID,0,VALID,23.7402,VALID,79,VALID,0,
2011-01-15, 00:36:04,VALID,997.65,VALID,0,VALID,91.3037,VALID,0,VALID,23.7597,VALID,79,VALID,0,
2011-01-15, 00:37:04,VALID,997.634,VALID,0,VALID,91.3876,VALID,0,VALID,23.8006,VALID,79,VALID,0,
2011-01-15, 00:38:04,VALID,997.592,VALID,0,VALID,91.4257,VALID,0,VALID,23.7988,VALID,79,VALID,0,
2011-01-15, 00:39:04,VALID,997.583,VALID,0,VALID,91.4486,VALID,0,VALID,23.8378,VALID,79,VALID,0,
2011-01-15, 00:40:04,VALID,997.547,VALID,0,VALID,91.4257,VALID,0,VALID,23.8183,VALID,79,VALID,0,
2011-01-15, 00:41:04,VALID,997.523,VALID,0,VALID,91.4105,VALID,0,VALID,23.8183,VALID,79,VALID,0,
2011-01-15, 00:42:04,VALID,997.485,VALID,0,VALID,91.3494,VALID,0,VALID,23.8183,VALID,79,VALID,0,
2011-01-15, 00:43:04,VALID,997.477,VALID,0,VALID,91.3342,VALID,0,VALID,23.8183,VALID,79,VALID,0,
2011-01-15, 00:44:04,VALID,997.483,VALID,0,VALID,91.2884,VALID,0,VALID,23.8183,VALID,79,VALID,0,
2011-01-15, 00:45:04,VALID,997.463,VALID,0,VALID,91.1968,VALID,0,VALID,23.8183,VALID,79,VALID,0,
2011-01-15, 00:46:04,VALID,997.459,VALID,0,VALID,91.1129,VALID,0,VALID,23.7988,VALID,79,VALID,0,
2011-01-15, 00:47:04,VALID,997.44,VALID,0,VALID,91.029,VALID,0,VALID,23.7793,VALID,78,VALID,0,
2011-01-15, 00:48:04,VALID,997.442,VALID,0,VALID,91.0214,VALID,0,VALID,23.7597,VALID,43,VALID,0,
2011-01-15, 00:49:04,VALID,997.451,VALID,0,VALID,90.9985,VALID,0,VALID,23.7597,VALID,43,VALID,0,
2011-01-15, 00:50:04,VALID,997.426,VALID,0,VALID,91.0519,VALID,0,VALID,23.7616,VALID,43,VALID,0,
2011-01-15, 00:51:04,VALID,997.457,VALID,0,VALID,91.0977,VALID,0,VALID,23.7597,VALID,43,VALID,0,
2011-01-15, 00:52:04,VALID,997.425,VALID,0,VALID,91.1587,VALID,0,VALID,23.7402,VALID,43,VALID,0,
2011-01-15, 00:53:04,VALID,997.4,VALID,0,VALID,91.2121,VALID,0,VALID,23.7207,VALID,43,VALID,0,
2011-01-15, 00:54:04,VALID,997.397,VALID,0,VALID,91.2579,VALID,0,VALID,23.7012,VALID,43,VALID,0,
2011-01-15, 00:55:04,VALID,997.386,VALID,0,VALID,91.2884,VALID,0,VALID,23.7012,VALID,43,VALID,0,
2011-01-15, 00:56:04,VALID,997.369,VALID,0,VALID,91.3037,VALID,0,VALID,23.6817,VALID,43,VALID,0,
2011-01-15, 00:57:04,VALID,997.397,VALID,0,VALID,91.2884,VALID,0,VALID,23.6622,VALID,43,VALID,0,
2011-01-15, 00:58:04,VALID,997.344,VALID,0,VALID,91.3418,VALID,0,VALID,23.6427,VALID,43,VALID,0,
2011-01-15, 00:59:04,VALID,997.329,VALID,0,VALID,91.3952,VALID,0,VALID,23.6427,VALID,43,VALID,0,
2011-01-15, 01:00:04,VALID,997.297,VALID,0,VALID,91.4563,VALID,0,VALID,23.6622,VALID,43,VALID,0.586719,
2011-01-15, 01:01:04,VALID,997.301,VALID,0,VALID,91.4563,VALID,0,VALID,23.6427,VALID,43,VALID,0.627734,
2011-01-15, 01:02:04,VALID,997.262,VALID,0,VALID,91.4944,VALID,0,VALID,23.6427,VALID,43,VALID,0.741797,
2011-01-15, 01:03:04,VALID,997.26,VALID,0,VALID,91.5326,VALID,0,VALID,23.6427,VALID,43,VALID,0.770312,
2011-01-15, 01:04:04,VALID,997.27,VALID,0,VALID,91.5402,VALID,0,VALID,23.6427,VALID,43,VALID,0.822266,
2011-01-15, 01:05:04,VALID,997.264,VALID,0,VALID,91.5402,VALID,0,VALID,23.6427,VALID,43,VALID,0.855469,
2011-01-15, 01:06:04,VALID,997.217,VALID,0,VALID,91.5249,VALID,0,VALID,23.6232,VALID,43,VALID,0.846875,
2011-01-15, 01:07:04,VALID,997.232,VALID,0,VALID,91.5478,VALID,0,VALID,23.6232,VALID,43,VALID,0.855859,
2011-01-15, 01:08:04,VALID,997.195,VALID,0,VALID,91.5326,VALID,0,VALID,23.6232,VALID,43,VALID,0.866406,
2011-01-15, 01:09:04,VALID,997.193,VALID,0,VALID,91.5554,VALID,0,VALID,23.6232,VALID,43,VALID,0.861719,
2011-01-15, 01:10:04,VALID,997.2,VALID,0,VALID,91.5402,VALID,0,VALID,23.6445,VALID,43,VALID,0.628516,
2011-01-15, 01:11:04,VALID,997.177,VALID,0,VALID,91.4791,VALID,0,VALID,23.6036,VALID,43,VALID,0.616406,
2011-01-15, 01:12:04,VALID,997.158,VALID,0,VALID,91.4563,VALID,0,VALID,23.6036,VALID,43,VALID,0.653906,
2011-01-15, 01:13:04,VALID,997.136,VALID,0,VALID,91.4181,VALID,0,VALID,23.5841,VALID,43,VALID,0.664453,
2011-01-15, 01:14:04,VALID,997.141,VALID,0,VALID,91.3952,VALID,0,VALID,23.5841,VALID,43,VALID,0.649219,
2011-01-15, 01:15:04,VALID,997.124,VALID,0,VALID,91.4105,VALID,0,VALID,23.5841,VALID,43,VALID,0.536328,
2011-01-15, 01:16:04,VALID,997.136,VALID,0,VALID,91.4181,VALID,0,VALID,23.5841,VALID,43,VALID,0.406641,
2011-01-15, 01:17:04,VALID,997.163,VALID,0,VALID,91.4334,VALID,0,VALID,23.5841,VALID,43,VALID,0.288281,
2011-01-15, 01:18:04,VALID,997.106,VALID,0,VALID,91.4563,VALID,0,VALID,23.5859,VALID,43,VALID,0.270312,
2011-01-15, 01:19:04,VALID,997.14,VALID,0,VALID,91.4868,VALID,0,VALID,23.5646,VALID,43,VALID,0.200781,
2011-01-15, 01:20:04,VALID,997.117,VALID,0,VALID,91.5478,VALID,0,VALID,23.5646,VALID,43,VALID,0.195703,
2011-01-15, 01:21:04,VALID,997.103,VALID,0,VALID,91.5631,VALID,0,VALID,23.5646,VALID,43,VALID,0.169531,
2011-01-15, 01:22:04,VALID,997.115,VALID,0,VALID,91.6088,VALID,0,VALID,23.5451,VALID,43,VALID,0.111719,
2011-01-15, 01:23:04,VALID,997.121,VALID,0,VALID,91.6317,VALID,0,VALID,23.5256,VALID,43,VALID,0.428906,
2011-01-15, 01:24:04,VALID,997.105,VALID,0,VALID,91.6394,VALID,0,VALID,23.5061,VALID,43,VALID,0.426953,
2011-01-15, 01:25:04,VALID,997.132,VALID,0,VALID,91.6546,VALID,0,VALID,23.4671,VALID,43,VALID,0.355859,
2011-01-15, 01:26:04,VALID,997.133,VALID,0,VALID,91.7004,VALID,0,VALID,23.4671,VALID,43,VALID,0.494531,
2011-01-15, 01:27:04,VALID,997.117,VALID,0,VALID,91.7309,VALID,0,VALID,23.4475,VALID,43,VALID,0.608203,
2011-01-15, 01:28:05,VALID,997.15,VALID,0,VALID,91.7309,VALID,0,VALID,23.4475,VALID,23,VALID,0.895312,
2011-01-15, 01:29:05,VALID,997.158,VALID,0,VALID,91.7004,VALID,0,VALID,23.428,VALID,14,VALID,0.898828,
2011-01-15, 01:30:05,VALID,997.228,VALID,0,VALID,91.6623,VALID,0,VALID,23.4085,VALID,14,VALID,0.970703,
2011-01-15, 01:31:05,VALID,997.21,VALID,0,VALID,91.6394,VALID,0,VALID,23.389,VALID,348,VALID,0.60625,
2011-01-15, 01:32:05,VALID,997.21,VALID,0,VALID,91.6165,VALID,0,VALID,23.389,VALID,348,VALID,0.686719,
2011-01-15, 01:33:05,VALID,997.247,VALID,0,VALID,91.6317,VALID,0,VALID,23.4085,VALID,348,VALID,0.46875,
2011-01-15, 01:34:05,VALID,997.251,VALID,0,VALID,91.6623,VALID,0,VALID,23.428,VALID,348,VALID,0.455469,
2011-01-15, 01:35:05,VALID,997.287,VALID,0,VALID,91.6928,VALID,0,VALID,23.428,VALID,348,VALID,0.478906,
2011-01-15, 01:36:05,VALID,997.288,VALID,0,VALID,91.7385,VALID,0,VALID,23.4475,VALID,348,VALID,0.5125,
2011-01-15, 01:37:05,VALID,997.345,VALID,0,VALID,91.7767,VALID,0,VALID,23.4475,VALID,348,VALID,0.335156,
2011-01-15, 01:38:05,VALID,997.34,VALID,0,VALID,91.8301,VALID,0,VALID,23.4688,VALID,348,VALID,0.325,
2011-01-15, 01:39:05,VALID,997.37,VALID,0,VALID,91.8377,VALID,0,VALID,23.4671,VALID,348,VALID,0.182812,
2011-01-15, 01:40:05,VALID,997.371,VALID,0,VALID,91.8759,VALID,0,VALID,23.4671,VALID,348,VALID,0.183984,
2011-01-15, 01:41:05,VALID,997.387,VALID,0,VALID,91.8759,VALID,0,VALID,23.4671,VALID,348,VALID,0.305859,
2011-01-15, 01:42:05,VALID,997.392,VALID,0,VALID,91.9064,VALID,0,VALID,23.4671,VALID,348,VALID,0.366016,
2011-01-15, 01:43:05,VALID,997.386,VALID,0,VALID,91.8988,VALID,0,VALID,23.4671,VALID,348,VALID,0.298438,
2011-01-15, 01:44:05,VALID,997.426,VALID,0,VALID,91.8835,VALID,0,VALID,23.4866,VALID,348,VALID,0.0796875,
2011-01-15, 01:45:05,VALID,997.403,VALID,0,VALID,91.8454,VALID,0,VALID,23.4866,VALID,348,VALID,0,
2011-01-15, 01:46:05,VALID,997.397,VALID,0,VALID,91.8072,VALID,0,VALID,23.4866,VALID,348,VALID,0,
2011-01-15, 01:47:05,VALID,997.397,VALID,0,VALID,91.7691,VALID,0,VALID,23.4866,VALID,348,VALID,0.179688,
2011-01-15, 01:48:05,VALID,997.36,VALID,0,VALID,91.7462,VALID,0,VALID,23.4884,VALID,348,VALID,0.328906,
2011-01-15, 01:49:05,VALID,997.358,VALID,0,VALID,91.6699,VALID,0,VALID,23.4671,VALID,348,VALID,0.503516,
2011-01-15, 01:50:05,VALID,997.357,VALID,0,VALID,91.586,VALID,0,VALID,23.4866,VALID,116,VALID,0.731641,
2011-01-15, 01:51:05,VALID,997.36,VALID,0,VALID,91.3876,VALID,0,VALID,23.5646,VALID,116,VALID,0.910937,
2011-01-15, 01:52:05,VALID,997.35,VALID,0,VALID,90.9909,VALID,0,VALID,23.6232,VALID,116,VALID,0.933984,
2011-01-15, 01:53:05,VALID,997.361,VALID,0,VALID,90.5254,VALID,0,VALID,23.6622,VALID,119,VALID,0.962109,
2011-01-15, 01:54:05,VALID,997.357,VALID,0,VALID,90.0753,VALID,0,VALID,23.7012,VALID,119,VALID,0.915234,
2011-01-15, 01:55:05,VALID,997.379,VALID,0,VALID,89.6328,VALID,0,VALID,23.6817,VALID,121,VALID,0.971094,
2011-01-15, 01:56:05,VALID,997.376,VALID,0,VALID,89.3428,VALID,0,VALID,23.6445,VALID,121,VALID,1.0168,
2011-01-15, 01:57:05,VALID,997.33,VALID,0,VALID,89.3123,VALID,0,VALID,23.5841,VALID,121,VALID,0.712109,
2011-01-15, 01:58:05,VALID,997.323,VALID,0,VALID,89.4268,VALID,0,VALID,23.5451,VALID,121,VALID,0.476172,
2011-01-15, 01:59:05,VALID,997.295,VALID,0,VALID,89.587,VALID,0,VALID,23.5061,VALID,121,VALID,0.344922,
2011-01-15, 02:00:05,VALID,997.323,VALID,0,VALID,89.6938,VALID,0,VALID,23.4671,VALID,121,VALID,0.224609,
2011-01-15, 02:01:05,VALID,997.289,VALID,0,VALID,89.8311,VALID,0,VALID,23.4493,VALID,121,VALID,0.263281,
2011-01-15, 02:02:05,VALID,997.286,VALID,0,VALID,90.0066,VALID,0,VALID,23.4085,VALID,121,VALID,0.366406,
2011-01-15, 02:03:05,VALID,997.294,VALID,0,VALID,90.1211,VALID,0,VALID,23.3695,VALID,121,VALID,0.382422,
2011-01-15, 02:04:05,VALID,997.236,VALID,0,VALID,90.1974,VALID,0,VALID,23.2915,VALID,121,VALID,0.261719,
2011-01-15, 02:05:05,VALID,997.218,VALID,0,VALID,90.3118,VALID,0,VALID,23.2524,VALID,121,VALID,0.200391,
2011-01-15, 02:06:05,VALID,997.202,VALID,0,VALID,90.5407,VALID,0,VALID,23.2329,VALID,121,VALID,0.163281,
2011-01-15, 02:07:05,VALID,997.202,VALID,0,VALID,90.6857,VALID,0,VALID,23.2134,VALID,121,VALID,0.288281,
2011-01-15, 02:08:05,VALID,997.164,VALID,0,VALID,90.8001,VALID,0,VALID,23.1939,VALID,121,VALID,0.161328,
2011-01-15, 02:09:05,VALID,997.145,VALID,0,VALID,90.9298,VALID,0,VALID,23.1744,VALID,121,VALID,0,
2011-01-15, 02:10:05,VALID,997.152,VALID,0,VALID,91.029,VALID,0,VALID,23.1549,VALID,121,VALID,0,
2011-01-15, 02:11:05,VALID,997.148,VALID,0,VALID,91.1511,VALID,0,VALID,23.1549,VALID,121,VALID,0,
2011-01-15, 02:12:05,VALID,997.171,VALID,0,VALID,91.2426,VALID,0,VALID,23.1549,VALID,121,VALID,0,
2011-01-15, 02:13:05,VALID,997.166,VALID,0,VALID,91.3723,VALID,0,VALID,23.1744,VALID,121,VALID,0.429688,
2011-01-15, 02:14:05,VALID,997.189,VALID,0,VALID,91.4791,VALID,0,VALID,23.2134,VALID,120,VALID,0.499609,
2011-01-15, 02:15:05,VALID,997.191,VALID,0,VALID,91.5249,VALID,0,VALID,23.1939,VALID,120,VALID,0.235156,
2011-01-15, 02:16:05,VALID,997.172,VALID,0,VALID,91.5402,VALID,0,VALID,23.2134,VALID,120,VALID,0.259766,
2011-01-15, 02:17:05,VALID,997.167,VALID,0,VALID,91.5478,VALID,0,VALID,23.2134,VALID,120,VALID,0.234766,
2011-01-15, 02:18:05,VALID,997.155,VALID,0,VALID,91.5402,VALID,0,VALID,23.2152,VALID,120,VALID,0.344141,
2011-01-15, 02:19:05,VALID,997.17,VALID,0,VALID,91.5326,VALID,0,VALID,23.2134,VALID,120,VALID,0.380859,
2011-01-15, 02:20:05,VALID,997.12,VALID,0,VALID,91.502,VALID,0,VALID,23.2134,VALID,120,VALID,0.445313,
2011-01-15, 02:21:05,VALID,997.068,VALID,0,VALID,91.4791,VALID,0,VALID,23.2542,VALID,120,VALID,0.351563,
2011-01-15, 02:22:05,VALID,997.047,VALID,0,VALID,91.441,VALID,0,VALID,23.2329,VALID,120,VALID,0.441016,
2011-01-15, 02:23:05,VALID,997.041,VALID,0,VALID,91.4181,VALID,0,VALID,23.2524,VALID,120,VALID,0.269922,
2011-01-15, 02:24:05,VALID,997.038,VALID,0,VALID,91.4257,VALID,0,VALID,23.2329,VALID,120,VALID,0,
2011-01-15, 02:25:05,VALID,997.027,VALID,0,VALID,91.38,VALID,0,VALID,23.2542,VALID,120,VALID,0,
2011-01-15, 02:26:05,VALID,997.004,VALID,0,VALID,91.38,VALID,0,VALID,23.2134,VALID,120,VALID,0,
2011-01-15, 02:27:05,VALID,997.031,VALID,0,VALID,91.3723,VALID,0,VALID,23.2347,VALID,120,VALID,0,
2011-01-15, 02:28:05,VALID,997.063,VALID,0,VALID,91.3952,VALID,0,VALID,23.2347,VALID,120,VALID,0,
2011-01-15, 02:29:05,VALID,997.074,VALID,0,VALID,91.4028,VALID,0,VALID,23.1939,VALID,120,VALID,0.412109,
2011-01-15, 02:30:05,VALID,997.072,VALID,0,VALID,91.5173,VALID,0,VALID,23.2347,VALID,120,VALID,0.531641,
2011-01-15, 02:31:05,VALID,997.058,VALID,0,VALID,91.586,VALID,0,VALID,23.2117,VALID,120,VALID,0.541797,
2011-01-15, 02:32:05,VALID,997.052,VALID,0,VALID,91.6546,VALID,0,VALID,23.2542,VALID,120,VALID,0.451172,
2011-01-15, 02:33:05,VALID,997.032,VALID,0,VALID,91.6851,VALID,0,VALID,23.2329,VALID,120,VALID,0.452344,
2011-01-15, 02:34:05,VALID,997.031,VALID,0,VALID,91.7157,VALID,0,VALID,23.2524,VALID,120,VALID,0.675391,
2011-01-15, 02:35:05,VALID,996.996,VALID,0,VALID,91.6928,VALID,0,VALID,23.2524,VALID,120,VALID,0.543359,
2011-01-15, 02:36:05,VALID,997.002,VALID,0,VALID,91.6928,VALID,0,VALID,23.2542,VALID,120,VALID,0.504297,
2011-01-15, 02:37:05,VALID,996.95,VALID,0,VALID,91.7004,VALID,0,VALID,23.2329,VALID,120,VALID,0.326562,
2011-01-15, 02:38:05,VALID,996.945,VALID,0,VALID,91.708,VALID,0,VALID,23.2134,VALID,120,VALID,0.228516,
2011-01-15, 02:39:05,VALID,996.94,VALID,0,VALID,91.7538,VALID,0,VALID,23.2329,VALID,120,VALID,0,
2011-01-15, 02:40:05,VALID,996.919,VALID,0,VALID,91.7614,VALID,0,VALID,23.2329,VALID,120,VALID,0,
2011-01-15, 02:41:05,VALID,996.94,VALID,0,VALID,91.7767,VALID,0,VALID,23.2134,VALID,120,VALID,0.1875,
2011-01-15, 02:42:05,VALID,996.93,VALID,0,VALID,91.8072,VALID,0,VALID,23.2329,VALID,120,VALID,0.392578,
2011-01-15, 02:43:05,VALID,996.945,VALID,0,VALID,91.8454,VALID,0,VALID,23.2329,VALID,97,VALID,0.476172,
2011-01-15, 02:44:05,VALID,996.911,VALID,0,VALID,91.8606,VALID,0,VALID,23.2542,VALID,74,VALID,0.539844,
2011-01-15, 02:45:05,VALID,996.96,VALID,0,VALID,91.8911,VALID,0,VALID,23.2719,VALID,74,VALID,0.560156,
2011-01-15, 02:46:05,VALID,996.951,VALID,0,VALID,91.9217,VALID,0,VALID,23.2719,VALID,113,VALID,0.798437,
2011-01-15, 02:47:05,VALID,996.96,VALID,0,VALID,91.9293,VALID,0,VALID,23.2915,VALID,112,VALID,0.576563,
2011-01-15, 02:48:05,VALID,996.96,VALID,0,VALID,91.9598,VALID,0,VALID,23.311,VALID,112,VALID,0.583984,
2011-01-15, 02:49:05,VALID,996.959,VALID,0,VALID,91.9827,VALID,0,VALID,23.3305,VALID,112,VALID,0.608594,
2011-01-15, 02:50:05,VALID,996.984,VALID,0,VALID,92.0056,VALID,0,VALID,23.3695,VALID,125,VALID,0.692187,
2011-01-15, 02:51:05,VALID,997.027,VALID,0,VALID,92.0056,VALID,0,VALID,23.389,VALID,130,VALID,0.441016,
2011-01-15, 02:52:05,VALID,997.008,VALID,0,VALID,91.9827,VALID,0,VALID,23.389,VALID,145,VALID,0.7375,
2011-01-15, 02:53:05,VALID,997.029,VALID,0,VALID,91.9903,VALID,0,VALID,23.4475,VALID,147,VALID,0.996094,
2011-01-15, 02:54:05,VALID,997.038,VALID,0,VALID,91.9522,VALID,0,VALID,23.4884,VALID,151,VALID,0.872656,
2011-01-15, 02:55:05,VALID,997.026,VALID,0,VALID,91.9293,VALID,0,VALID,23.4866,VALID,173,VALID,1.03516,
2011-01-15, 02:56:05,VALID,997.071,VALID,0,VALID,91.8225,VALID,0,VALID,23.5451,VALID,176,VALID,1.24922,
2011-01-15, 02:57:05,VALID,997.064,VALID,0,VALID,91.6241,VALID,0,VALID,23.6054,VALID,169,VALID,1.1207,
2011-01-15, 02:58:05,VALID,997.074,VALID,0,VALID,91.3113,VALID,0,VALID,23.6445,VALID,158,VALID,1.13633,
2011-01-15, 02:59:05,VALID,997.07,VALID,0,VALID,90.8993,VALID,0,VALID,23.6622,VALID,158,VALID,0.655469,
2011-01-15, 03:00:05,VALID,997.046,VALID,0,VALID,90.411,VALID,0,VALID,23.703,VALID,164,VALID,0.892187,
2011-01-15, 03:01:05,VALID,997.024,VALID,0,VALID,89.8693,VALID,0,VALID,23.7012,VALID,162,VALID,0.771094,
2011-01-15, 03:02:05,VALID,997.056,VALID,0,VALID,89.3352,VALID,0,VALID,23.742,VALID,169,VALID,0.758203,
2011-01-15, 03:03:05,VALID,997.039,VALID,0,VALID,88.9766,VALID,0,VALID,23.7384,VALID,169,VALID,0.771875,
2011-01-15, 03:04:05,VALID,997.022,VALID,0,VALID,88.7249,VALID,0,VALID,23.7793,VALID,170,VALID,0.874609,
2011-01-15, 03:05:05,VALID,996.988,VALID,0,VALID,88.5494,VALID,0,VALID,23.7988,VALID,170,VALID,0.857031,
2011-01-15, 03:06:05,VALID,996.974,VALID,0,VALID,88.3129,VALID,0,VALID,23.8396,VALID,170,VALID,0.787109,
2011-01-15, 03:07:05,VALID,997.01,VALID,0,VALID,88.206,VALID,0,VALID,23.8183,VALID,181,VALID,1.02227,
2011-01-15, 03:08:05,VALID,997.007,VALID,0,VALID,88.0534,VALID,0,VALID,23.8591,VALID,178,VALID,0.974609,
2011-01-15, 03:09:05,VALID,996.962,VALID,0,VALID,87.8627,VALID,0,VALID,23.8573,VALID,177,VALID,1.12227,
2011-01-15, 03:10:05,VALID,997.013,VALID,0,VALID,87.672,VALID,0,VALID,23.8768,VALID,175,VALID,1.1375,
2011-01-15, 03:11:05,VALID,997.049,VALID,0,VALID,87.3897,VALID,0,VALID,23.8768,VALID,178,VALID,1.3418,
2011-01-15, 03:12:05,VALID,997.051,VALID,0,VALID,87.2218,VALID,0,VALID,23.9177,VALID,169,VALID,1.12656,
2011-01-15, 03:13:05,VALID,997.065,VALID,0,VALID,86.8022,VALID,0,VALID,23.9372,VALID,161,VALID,1.15977,
2011-01-15, 03:14:05,VALID,997.073,VALID,0,VALID,86.5428,VALID,0,VALID,23.9762,VALID,167,VALID,1.43047,
2011-01-15, 03:15:05,VALID,997.093,VALID,0,VALID,86.3673,VALID,0,VALID,23.9939,VALID,159,VALID,1.12734,
2011-01-15, 03:16:05,VALID,997.086,VALID,0,VALID,86.3292,VALID,0,VALID,23.9939,VALID,162,VALID,1.20195,
2011-01-15, 03:17:05,VALID,997.1,VALID,0,VALID,86.3826,VALID,0,VALID,24.0134,VALID,156,VALID,1.09844,
2011-01-15, 03:18:05,VALID,997.116,VALID,0,VALID,86.3597,VALID,0,VALID,24.0134,VALID,159,VALID,0.877344,
2011-01-15, 03:19:05,VALID,997.114,VALID,0,VALID,86.436,VALID,0,VALID,24.0134,VALID,159,VALID,0.777344,
2011-01-15, 03:20:05,VALID,997.131,VALID,0,VALID,86.6267,VALID,0,VALID,23.9939,VALID,159,VALID,0.685547,
2011-01-15, 03:21:05,VALID,997.133,VALID,0,VALID,86.5428,VALID,0,VALID,23.9957,VALID,160,VALID,0.943359,
2011-01-15, 03:22:05,VALID,997.139,VALID,0,VALID,86.5809,VALID,0,VALID,23.9939,VALID,160,VALID,0.682031,
2011-01-15, 03:23:05,VALID,997.146,VALID,0,VALID,86.5657,VALID,0,VALID,23.9939,VALID,168,VALID,0.830078,
2011-01-15, 03:24:05,VALID,997.124,VALID,0,VALID,86.4741,VALID,0,VALID,23.9744,VALID,170,VALID,0.758984,
2011-01-15, 03:25:05,VALID,997.115,VALID,0,VALID,86.3292,VALID,0,VALID,24.0153,VALID,170,VALID,0.7125,
2011-01-15, 03:26:05,VALID,997.115,VALID,0,VALID,86.2681,VALID,0,VALID,23.9744,VALID,170,VALID,0.628906,
2011-01-15, 03:27:05,VALID,997.068,VALID,0,VALID,86.3063,VALID,0,VALID,24.0134,VALID,170,VALID,0.631641,
2011-01-15, 03:28:05,VALID,997.092,VALID,0,VALID,86.1766,VALID,0,VALID,23.9939,VALID,170,VALID,0.545313,
2011-01-15, 03:29:05,VALID,997.088,VALID,0,VALID,86.1003,VALID,0,VALID,23.9549,VALID,162,VALID,0.621875,
2011-01-15, 03:30:05,VALID,997.082,VALID,0,VALID,85.9629,VALID,0,VALID,23.9957,VALID,162,VALID,0.135547,
2011-01-15, 03:31:05,VALID,997.023,VALID,0,VALID,86.024,VALID,0,VALID,23.9939,VALID,162,VALID,0.108984,
2011-01-15, 03:32:05,VALID,997.03,VALID,0,VALID,86.6267,VALID,0,VALID,24.0153,VALID,275,VALID,0.51875,
2011-01-15, 03:33:05,VALID,997.025,VALID,0,VALID,86.9624,VALID,0,VALID,23.9744,VALID,275,VALID,0.570703,
2011-01-15, 03:34:05,VALID,997.042,VALID,0,VALID,86.8861,VALID,0,VALID,23.9354,VALID,275,VALID,0.376953,
2011-01-15, 03:35:05,VALID,997.087,VALID,0,VALID,87.0616,VALID,0,VALID,23.9159,VALID,275,VALID,0.188281,
2011-01-15, 03:36:05,VALID,997.123,VALID,0,VALID,87.3286,VALID,0,VALID,23.8963,VALID,275,VALID,0,
2011-01-15, 03:37:05,VALID,997.125,VALID,0,VALID,87.4354,VALID,0,VALID,23.8573,VALID,275,VALID,0,
2011-01-15, 03:38:05,VALID,997.128,VALID,0,VALID,87.6414,VALID,0,VALID,23.8378,VALID,275,VALID,0.192188,
2011-01-15, 03:39:05,VALID,997.164,VALID,0,VALID,87.6262,VALID,0,VALID,23.7793,VALID,145,VALID,0.653516,
2011-01-15, 03:40:05,VALID,997.16,VALID,0,VALID,87.1455,VALID,0,VALID,23.7402,VALID,153,VALID,0.989062,
2011-01-15, 03:41:05,VALID,997.152,VALID,0,VALID,86.8556,VALID,0,VALID,23.7988,VALID,138,VALID,0.910156,
2011-01-15, 03:42:05,VALID,997.164,VALID,0,VALID,86.497,VALID,0,VALID,23.8378,VALID,153,VALID,1.16055,
2011-01-15, 03:43:05,VALID,997.165,VALID,0,VALID,86.0621,VALID,0,VALID,23.8963,VALID,141,VALID,1.12539,
2011-01-15, 03:44:05,VALID,997.191,VALID,0,VALID,85.9324,VALID,0,VALID,23.9354,VALID,140,VALID,0.891016,
2011-01-15, 03:45:05,VALID,997.156,VALID,0,VALID,86.1155,VALID,0,VALID,23.9354,VALID,140,VALID,0.560156,
2011-01-15, 03:46:05,VALID,997.166,VALID,0,VALID,86.1842,VALID,0,VALID,23.9177,VALID,140,VALID,0.539453,
2011-01-15, 03:47:05,VALID,997.171,VALID,0,VALID,86.3826,VALID,0,VALID,23.9159,VALID,140,VALID,0.496094,
2011-01-15, 03:48:05,VALID,997.217,VALID,0,VALID,86.7869,VALID,0,VALID,23.8963,VALID,140,VALID,0.429688,